User: anonymous   Login
Location: Arcueil
(48.7999°N, 2.3326°E)
Time: 20:56:58
(UTC+00:00)
Language:

YAOGAN-30 Y - Orbit

View from above orbital plane
View from above orbital plane
View from above satellite
View from above satellite

Ground track
Ground track

The orbit data is extracted from the following two-line orbital elements,

1 48424U 21039B   24052.44814875  .00003681  00000-0  33955-3 0  9997
2 48424  34.9961 121.9515 0004908 355.7366   4.3297 14.94178149152434
Epoch (UTC): 21 February 2024 10:45:20
Eccentricity: 0.0004908
inclination: 34.9961°
perigee height: 581 km
apogee height: 588 km
right ascension of ascending node: 121.9515°
argument of perigee: 355.7366°
revolutions per day: 14.94178149
mean anomaly at epoch: 4.3297°
orbit number at epoch: 15243

The dashed part of the orbit path shows where the satellite is in the earth's shadow,  

DLR